Location: Days
(41.3591°N, 106.7339°W)
Time: 00:55:42
(UTC+00:00)

First-Move - Visible Passes

Search period start: 30 June 2022 00:00
Search period end: 10 July 2022 00:00
Orbit: 572 x 660 km, 97.6° (Epoch: 29 June)

Date Brightness Start Highest point End Pass type
(mag) Time Alt. Az. Time Alt. Az. Time Alt. Az.
30 Jun ? 10:35:34 10° NNE 10:39:38 34° E 10:43:44 10° SSE visible
01 Jul ? 10:51:17 10° NNE 10:55:39 50° E 11:00:03 10° S visible
03 Jul ? 09:50:03 10° ENE 09:51:05 11° E 09:52:06 10° ESE visible
04 Jul ? 10:04:23 10° NE 10:07:12 16° E 10:10:00 10° SE visible
05 Jul ? 10:19:38 10° NE 10:23:16 24° E 10:26:55 10° SSE visible
06 Jul ? 10:35:10 10° NNE 10:39:18 34° E 10:43:26 10° SSE visible
07 Jul ? 10:50:53 10° NNE 10:55:18 51° E 10:59:43 10° S visible
08 Jul ? 11:06:43 10° NNE 11:11:15 77° ESE 11:15:47 10° S visible
09 Jul ? 09:49:30 10° ENE 09:50:41 11° E 09:51:51 10° ESE visible
